New Ulm, MN

3:13 AM CDT on April 26, 2017 (GMT -0500)
New Ulm Municipal

Weather History for KULM - October, 2012

Change the Weather History Date:

Sunday, October 14, 2012

  Actual Average Record
Temperature  
Mean Temperature 52 °F -  
Max Temperature 60 °F 63 °F 86 °F (1958)
Min Temperature 44 °F 39 °F 24 °F (2006)
Degree Days  
Heating Degree Days 13    
Growing Degree Days 2 (Base 50)    
Moisture  
Dew Point 43 °F    
Average Humidity 73    
Maximum Humidity 93    
Minimum Humidity 45    
Precipitation  
Precipitation 0.00 in - - ()
Sea Level Pressure  
Sea Level Pressure 29.80 in    
Wind  
Wind Speed 10 mph (NNW)    
Max Wind Speed 23 mph    
Max Gust Speed 30 mph    
Visibility 9 miles    
Events      
Averages and records for this station are not official NWS values.
T = Trace of Precipitation, MM = Missing Value Source: NWS Daily Summary

Daily Weather History Graph

Daily Weather History Graph

Search for Another Location

Airport or City:

Trip Planner

Search our weather history database for the weather conditions in past years. The results will help you decide how hot, cold, wet, or windy it might be!

Date:

Astronomy

Oct. 14, 2012 Rise Set
Actual Time 7:32 AM CDT 6:34 PM CDT
Civil Twilight 7:03 AM CDT 7:03 PM CDT
Nautical Twilight 6:29 AM CDT 7:37 PM CDT
Astronomical Twilight 5:55 AM CDT 8:10 PM CDT
Moon 6:31 AM CDT (10/14) 5:54 PM CDT (10/14)
Length of Visible Light 12h 00m
Length of Day
11h 02m
Waning Crescent, 1% of the Moon is Illuminated
Oct 14
Waning Crescent
Oct 15
New
Oct 21
First Quarter
Oct 29
Full
Nov 6
Last Quarter

Hourly Weather History & Observations

Time (CDT) Temp. Windchill Dew Point Humidity Pressure Visibility Wind Dir Wind Speed Gust Speed Precip Events Conditions
12:13 AM 53.6 °F - 48.2 °F 82% 29.73 in 10.0 mi NNE 5.8 mph - N/A   Clear
12:32 AM 51.8 °F - 48.2 °F 88% 29.72 in 7.0 mi NE 8.1 mph - N/A   Clear
12:53 AM 51.8 °F - 48.2 °F 88% 29.73 in 5.0 mi NNE 5.8 mph - N/A   Clear
1:13 AM 51.8 °F - 48.2 °F 88% 29.71 in 5.0 mi NNE 6.9 mph - N/A   Clear
1:32 AM 51.8 °F - 48.2 °F 88% 29.72 in 5.0 mi North 5.8 mph - N/A   Clear
1:53 AM 51.8 °F - 48.2 °F 88% 29.72 in 5.0 mi NNE 6.9 mph - N/A   Clear
2:13 AM 51.8 °F - 48.2 °F 88% 29.73 in 5.0 mi North 5.8 mph - N/A   Clear
2:32 AM 51.8 °F - 48.2 °F 88% 29.74 in 5.0 mi North 5.8 mph - N/A   Clear
2:53 AM 51.8 °F - 48.2 °F 88% 29.74 in 5.0 mi North 6.9 mph - N/A   Clear
3:13 AM 51.8 °F - 48.2 °F 88% 29.74 in 5.0 mi North 8.1 mph - N/A   Clear
3:32 AM 51.8 °F - 48.2 °F 88% 29.74 in 7.0 mi NNE 9.2 mph - N/A   Clear
3:53 AM 50.0 °F - 46.4 °F 87% 29.74 in 7.0 mi NNE 10.4 mph 17.3 mph N/A   Clear
4:13 AM 50.0 °F - 46.4 °F 87% 29.74 in 7.0 mi NE 12.7 mph - N/A   Clear
4:33 AM 48.2 °F - 46.4 °F 93% 29.75 in 7.0 mi NE 8.1 mph - N/A   Scattered Clouds
4:53 AM 48.2 °F - 46.4 °F 93% 29.75 in 10.0 mi NNE 5.8 mph - N/A   Scattered Clouds
5:13 AM 48.2 °F - 46.4 °F 93% 29.75 in 10.0 mi North 5.8 mph - N/A   Clear
5:33 AM 48.2 °F - 44.6 °F 87% 29.75 in 10.0 mi North 3.5 mph - N/A   Clear
5:53 AM 48.2 °F - 44.6 °F 87% 29.75 in 10.0 mi North 4.6 mph - N/A   Clear
6:13 AM 48.2 °F - 44.6 °F 87% 29.75 in 10.0 mi North 6.9 mph - N/A   Clear
6:33 AM 48.2 °F - 44.6 °F 87% 29.75 in 10.0 mi NNW 10.4 mph - N/A   Clear
6:53 AM 48.2 °F - 44.6 °F 87% 29.76 in 7.0 mi NW 9.2 mph - N/A   Clear
7:13 AM 46.4 °F 41.5 °F 44.6 °F 93% 29.75 in 7.0 mi NNW 10.4 mph - N/A   Clear
7:33 AM 46.4 °F 41.9 °F 44.6 °F 93% 29.76 in 7.0 mi NW 9.2 mph - N/A   Clear
7:53 AM 46.4 °F 41.5 °F 44.6 °F 93% 29.76 in 5.0 mi NNW 10.4 mph - N/A   Clear
8:13 AM 46.4 °F 41.5 °F 44.6 °F 93% 29.77 in 3.0 mi NW 10.4 mph - N/A   Clear
8:33 AM 46.4 °F 41.1 °F 44.6 °F 93% 29.77 in 4.0 mi NW 11.5 mph - N/A   Clear
8:53 AM 46.4 °F 40.7 °F 44.6 °F 93% 29.78 in 4.0 mi NW 12.7 mph - N/A   Clear
9:12 AM 46.4 °F 40.4 °F 42.8 °F 87% 29.78 in 5.0 mi NW 13.8 mph - N/A   Clear
9:33 AM 44.6 °F 38.1 °F 42.8 °F 93% 29.78 in 7.0 mi NW 13.8 mph - N/A   Clear
9:53 AM 46.4 °F 40.7 °F 42.8 °F 87% 29.79 in 10.0 mi NW 12.7 mph - N/A   Clear
10:12 AM 46.4 °F 40.7 °F 42.8 °F 87% 29.80 in 10.0 mi NW 12.7 mph - N/A   Clear
10:33 AM 48.2 °F - 42.8 °F 82% 29.80 in 10.0 mi NNW 15.0 mph - N/A   Clear
10:53 AM 48.2 °F - 42.8 °F 82% 29.80 in 10.0 mi NW 13.8 mph 19.6 mph N/A   Clear
11:13 AM 50.0 °F - 42.8 °F 76% 29.80 in 10.0 mi NNW 15.0 mph - N/A   Clear
11:33 AM 51.8 °F - 44.6 °F 76% 29.80 in 10.0 mi NNW 13.8 mph - N/A   Clear
11:53 AM 53.6 °F - 44.6 °F 72% 29.81 in 7.0 mi NW 15.0 mph 19.6 mph N/A   Clear
12:13 PM 53.6 °F - 46.4 °F 77% 29.81 in 10.0 mi NNW 13.8 mph 19.6 mph N/A   Clear
12:33 PM 55.4 °F - 44.6 °F 67% 29.81 in 10.0 mi NNW 12.7 mph 23.0 mph N/A   Clear
12:53 PM 53.6 °F - 44.6 °F 72% 29.81 in 10.0 mi NW 12.7 mph - N/A   Clear
1:13 PM 57.2 °F - 44.6 °F 63% 29.80 in 10.0 mi NNW 17.3 mph 23.0 mph N/A   Clear
1:33 PM 57.2 °F - 44.6 °F 63% 29.80 in 10.0 mi NNW 20.7 mph 24.2 mph N/A   Clear
1:53 PM 59.0 °F - 44.6 °F 59% 29.80 in 10.0 mi NNW 19.6 mph 29.9 mph N/A   Clear
2:12 PM 59.0 °F - 44.6 °F 59% 29.80 in 10.0 mi NW 20.7 mph 27.6 mph N/A   Clear
2:53 PM 59.0 °F - 44.6 °F 59% 29.79 in 10.0 mi NNW 19.6 mph 24.2 mph N/A   Clear
3:13 PM 60.8 °F - 44.6 °F 55% 29.79 in 10.0 mi NNW 23.0 mph 29.9 mph N/A   Clear
3:33 PM 60.8 °F - 42.8 °F 52% 29.80 in 10.0 mi NNW 19.6 mph 26.5 mph N/A   Clear
3:53 PM 60.8 °F - 42.8 °F 52% 29.81 in 10.0 mi NNW 21.9 mph 27.6 mph N/A   Clear
4:12 PM 60.8 °F - 41.0 °F 48% 29.81 in 10.0 mi NNW 19.6 mph 27.6 mph N/A   Clear
4:33 PM 60.8 °F - 39.2 °F 45% 29.82 in 10.0 mi NNW 12.7 mph 28.8 mph N/A   Scattered Clouds
4:53 PM 60.8 °F - 39.2 °F 45% 29.81 in 10.0 mi North 13.8 mph 24.2 mph N/A   Scattered Clouds
5:12 PM 60.8 °F - 39.2 °F 45% 29.83 in 10.0 mi NNW 18.4 mph 25.3 mph N/A   Scattered Clouds
5:33 PM 59.0 °F - 39.2 °F 48% 29.84 in 10.0 mi NNW 17.3 mph 23.0 mph N/A   Clear
5:53 PM 59.0 °F - 39.2 °F 48% 29.84 in 10.0 mi North 9.2 mph - N/A   Clear
6:12 PM 57.2 °F - 39.2 °F 51% 29.85 in 10.0 mi NNW 18.4 mph - N/A   Clear
6:33 PM 57.2 °F - 39.2 °F 51% 29.86 in 10.0 mi NW 12.7 mph - N/A   Scattered Clouds
6:53 PM 55.4 °F - 39.2 °F 54% 29.86 in 10.0 mi NW 13.8 mph - N/A   Scattered Clouds
7:12 PM 55.4 °F - 39.2 °F 54% 29.87 in 10.0 mi NW 9.2 mph - N/A   Clear
7:33 PM 53.6 °F - 37.4 °F 54% 29.87 in 10.0 mi NW 9.2 mph - N/A   Clear
7:53 PM 51.8 °F - 37.4 °F 58% 29.88 in 10.0 mi NW 10.4 mph - N/A   Clear
8:12 PM 53.6 °F - 35.6 °F 51% - 10.0 mi NW 12.7 mph - N/A   Clear
8:33 PM 51.8 °F - 35.6 °F 54% 29.89 in 10.0 mi NW 11.5 mph - N/A   Clear
8:53 PM 50.0 °F - 35.6 °F 58% 29.89 in 10.0 mi NW 9.2 mph - N/A   Clear
9:12 PM 50.0 °F - 35.6 °F 58% 29.89 in 10.0 mi NW 8.1 mph - N/A   Clear
9:33 PM 48.2 °F - 35.6 °F 62% 29.90 in 10.0 mi WNW 10.4 mph - N/A   Clear
9:53 PM 46.4 °F 42.4 °F 33.8 °F 62% 29.90 in 10.0 mi WNW 8.1 mph - N/A   Clear
10:13 PM 48.2 °F - 35.6 °F 62% 29.91 in 10.0 mi NW 9.2 mph - N/A   Clear
10:33 PM 48.2 °F - 35.6 °F 62% 29.91 in 10.0 mi NW 10.4 mph - N/A   Clear
10:53 PM 48.2 °F - 35.6 °F 62% 29.91 in 10.0 mi NW 10.4 mph - N/A   Clear
11:13 PM 46.4 °F 42.4 °F 35.6 °F 66% 29.91 in 10.0 mi NW 8.1 mph - N/A   Clear
11:33 PM 46.4 °F 43.5 °F 35.6 °F 66% 29.91 in 10.0 mi NW 5.8 mph - N/A   Clear
11:53 PM 44.6 °F 40.2 °F 33.8 °F 66% 29.92 in 10.0 mi NW 8.1 mph - N/A   Clear